GFSMA_850_temp_057.txt.gz
Temp
12 13 12 12 12 12 12 12 12 12 12 12 12 11 12 11 11 11 9 9 8 7 8 7 7 6 6 6 6 6 6 6 6 6 6 6 6 6 6 5 5 4 4
12 12 12 12 12 12 12 12 12 12 12 12 12 11 11 11 11 10 10 9 9 8 8 8 7 7 6 5 6 6 6 6 5 5 5 5 6 6 5 5 4 4 4
12 12 12 12 12 12 12 12 12 12 12 12 12 11 11 11 11 10 11 10 10 10 9 8 8 7 7 6 6 6 6 7 6 5 5 6 5 5 4 4 4 4 4
12 12 11 11 11 12 11 12 12 12 12 12 12 11 11 11 11 11 10 10 10 10 10 9 8 8 7 6 6 6 7 7 6 5 5 5 4 4 4 3 3 3 3
12 12 11 11 11 12 11 11 11 11 11 12 11 11 11 11 10 10 10 10 10 10 9 9 8 7 7 6 6 7 6 5 5 5 5 5 4 4 3 3 3 2 2
11 12 12 12 12 11 11 11 11 11 11 11 11 11 10 11 10 10 10 10 10 9 9 9 8 8 8 7 7 6 5 5 4 4 4 4 4 3 3 3 2 2 2
11 11 11 11 12 11 11 11 11 11 11 11 10 10 10 10 10 10 10 10 10 9 9 9 9 8 8 8 7 7 7 5 4 4 3 3 3 3 3 2 2 2 2
11 11 11 11 11 11 11 11 11 11 11 11 10 10 9 10 10 10 10 10 10 10 9 9 9 8 8 8 7 7 6 6 5 4 4 3 3 2 2 2 2 2 1
11 11 11 11 12 11 11 12 11 11 11 11 10 10 10 10 10 11 11 10 10 10 9 9 8 8 8 8 7 7 6 6 5 5 4 3 2 2 1 1 0 0 0
10 11 11 12 10 10 11 11 11 11 11 11 10 10 10 10 10 9 10 10 10 10 9 9 8 8 8 8 7 7 6 6 5 5 4 3 3 2 2 1 1 0 0
10 10 11 10 9 10 10 11 11 11 11 11 11 10 10 9 9 9 8 9 9 9 9 8 8 8 8 7 7 6 6 5 5 4 4 4 3 2 2 2 2 1 1
10 10 10 10 9 10 11 11 10 10 10 10 10 10 9 9 9 9 8 9 9 9 9 8 8 7 7 7 7 6 6 5 4 4 3 3 3 3 2 2 2 2 1
10 10 11 10 10 10 11 11 11 11 11 11 10 10 10 9 9 8 7 8 8 9 8 8 7 7 7 7 6 5 5 4 4 3 3 3 3 3 2 2 2 1 1
10 10 10 10 10 11 11 11 11 11 11 11 10 10 9 9 9 9 8 7 7 8 7 7 7 7 7 6 5 4 3 3 2 2 2 2 2 2 2 2 2 1 1
10 10 10 10 10 11 11 11 11 12 11 11 10 9 10 9 9 9 8 8 7 7 6 7 6 6 6 5 4 3 3 2 2 2 1 1 1 1 1 1 1 1 1
10 10 10 11 11 11 11 11 11 11 11 10 10 10 10 9 9 9 8 8 8 7 6 5 5 4 4 4 3 3 2 2 2 1 1 1 1 1 1 1 0 0 0
9 10 10 10 11 11 11 11 11 11 11 10 10 10 10 9 9 8 8 8 8 7 6 5 4 4 3 3 3 2 2 1 1 1 1 1 1 1 1 1 0 -0 -1
11 11 11 10 10 10 10 11 12 12 11 10 9 9 10 10 9 8 8 8 7 6 5 5 4 3 3 2 2 1 1 1 1 1 1 1 1 1 1 1 0 -0 -0
13 12 12 11 11 11 11 11 10 10 10 10 9 10 9 9 9 9 8 7 7 5 4 4 3 3 2 1 1 0 1 1 1 1 1 2 1 1 1 0 0 -0 -1
14 14 13 13 12 12 11 11 10 10 10 10 9 10 9 9 8 8 8 7 5 4 3 3 2 2 1 -0 0 -0 0 0 1 1 1 1 1 1 1 0 -0 -1 -2
13 13 12 12 12 11 11 11 11 10 9 9 9 9 9 9 8 8 7 6 4 3 3 2 1 1 -1 -1 -1 -1 -1 -0 0 1 1 1 1 -0 -0 -0 -1 -2 -3
13 12 11 11 11 11 11 11 9 9 9 9 9 9 8 8 8 7 5 4 3 2 2 1 0 -1 -2 -1 -1 -1 -1 -2 -3 -2 -1 -0 -1 -1 -2 -2 -2 -4 -5
11 11 10 10 11 10 10 10 10 9 9 9 9 9 8 7 6 5 3 3 2 1 0 -0 -1 -2 -1 -2 -1 -2 -2 -3 -4 -3 -3 -4 -3 -3 -5 -5 -4 -5 -6
10 10 10 9 9 10 9 9 9 9 9 9 8 8 7 6 4 3 3 2 0 -0 -1 -2 -2 -2 -2 -2 -2 -3 -3 -4 -4 -3 -4 -6 -5 -4 -6 -5 -5 -6 -6
9 9 9 9 9 9 9 9 8 8 8 7 6 6 5 4 3 2 1 0 -1 -2 -2 -3 -2 -2 -2 -3 -3 -4 -5 -5 -5 -5 -5 -7 -6 -6 -5 -5 -6 -6 -6
9 9 9 9 8 8 8 8 8 7 6 5 4 3 2 2 2 0 -1 -2 -2 -3 -3 -3 -3 -4 -4 -4 -5 -5 -4 -5 -7 -7 -7 -8 -9 -10 -9 -7 -8 -8 -6

GFSMA_850_temp_060.txt.gz
Temp
12 11 11 11 11 11 10 10 10 10 10 10 10 10 9 10 9 10 8 8 7 7 7 7 7 8 8 7 6 6 6 6 6 6 6 5 5 5 5 5 6 7 7
13 11 12 11 11 11 11 11 10 10 10 10 10 9 9 9 9 9 9 8 7 8 8 8 7 7 6 7 7 6 6 6 6 6 6 6 6 6 5 6 6 6 6
14 11 11 11 11 11 10 11 10 11 10 10 10 10 10 10 9 9 9 9 8 8 8 8 8 7 7 7 7 7 7 6 6 6 6 6 6 6 6 6 6 6 6
13 12 12 10 10 10 10 10 11 10 10 11 10 10 10 10 9 9 9 9 8 8 8 8 8 8 7 7 7 7 7 7 6 6 6 6 6 6 6 6 6 5 5
12 12 12 11 12 12 10 11 11 11 11 11 10 10 10 10 10 10 10 10 9 8 8 9 8 8 8 7 7 7 5 6 6 6 6 6 6 6 5 5 5 4 4
11 11 11 12 11 10 10 11 11 11 10 11 11 10 9 10 10 10 10 10 10 10 9 8 9 8 8 8 7 6 5 5 5 5 5 6 6 5 5 5 4 4 3
10 10 10 12 11 10 10 12 11 11 11 10 10 10 10 10 10 10 10 10 8 9 10 9 9 8 8 8 7 7 5 5 5 5 5 5 5 5 5 4 4 3 3
10 11 11 12 11 10 11 11 11 10 10 11 10 11 10 10 10 10 11 9 9 9 8 9 9 9 8 8 7 7 7 5 5 5 5 5 4 4 4 4 3 3 3
11 11 11 11 11 11 11 12 11 10 9 9 10 11 12 12 12 10 10 9 10 10 9 10 9 9 9 8 7 6 7 7 6 5 5 4 4 4 3 3 3 2 1
10 10 11 11 11 11 11 11 11 11 10 9 10 10 10 11 12 11 9 10 10 10 10 10 9 9 9 9 8 7 6 7 6 6 5 5 4 3 3 3 3 2 2
11 11 11 10 11 11 10 10 10 10 11 10 9 9 10 10 10 10 9 9 9 9 10 10 9 9 8 9 8 8 7 6 6 5 5 5 4 4 4 3 3 3 3
10 10 10 10 11 11 11 11 11 10 10 10 10 9 9 9 9 9 9 9 8 7 9 9 8 9 9 7 8 7 7 7 6 6 6 5 5 4 4 3 3 3 3
10 10 10 10 10 10 11 10 9 9 10 10 11 10 10 10 9 10 9 9 8 8 8 8 9 9 8 8 7 7 7 6 6 6 5 5 4 4 3 3 3 3 2
10 11 11 10 11 11 11 10 9 9 9 10 11 10 9 10 10 10 9 9 8 8 7 7 7 8 8 8 7 7 6 6 6 5 4 4 3 3 3 2 2 2 2
10 11 11 10 10 11 10 10 10 9 8 9 9 10 9 10 10 10 9 8 8 6 7 7 6 8 8 7 7 6 5 5 5 4 3 3 3 2 2 2 2 2 2
10 11 10 10 10 11 11 10 10 9 9 9 9 9 9 11 10 10 9 9 8 7 7 8 7 7 8 7 6 6 5 5 4 3 3 2 2 2 2 2 2 2 2
9 9 9 9 9 9 9 9 9 9 9 9 9 8 9 11 10 9 9 9 9 8 6 7 6 7 7 6 5 5 4 3 2 2 3 2 2 2 2 2 2 2 2
10 10 9 9 9 9 9 9 9 9 9 9 9 8 10 11 11 8 9 8 8 8 8 6 7 6 5 5 4 4 3 2 2 0 2 2 2 2 2 2 2 2 1
9 8 8 9 10 11 10 10 9 9 9 9 9 10 10 9 8 9 9 8 7 8 7 6 5 5 4 4 3 2 2 1 0 1 2 2 2 2 2 2 1 1 1
8 8 8 9 10 9 10 11 11 11 11 12 11 10 10 9 9 9 9 9 8 8 7 5 5 4 4 3 2 2 -0 -1 -1 -1 1 2 2 2 2 1 1 1 1
12 13 12 11 11 9 9 9 9 11 11 11 11 11 10 9 8 9 8 7 7 7 6 5 4 3 3 2 1 0 -1 -2 -2 1 0 1 1 1 1 1 1 1 -0
11 10 11 10 9 9 12 13 12 11 10 11 11 10 10 9 9 8 8 8 7 6 6 4 3 3 2 1 -1 -3 -3 -3 -2 -2 -1 -3 -1 -1 -2 -3 -1 -1 -2
10 11 10 10 9 8 8 9 10 9 9 10 9 9 10 9 9 8 7 6 5 4 3 3 3 2 0 -2 -2 -4 -3 -4 -4 -4 -4 -4 -3 -4 -4 -4 -3 -2 -3
9 9 9 8 8 8 8 8 8 8 8 9 9 9 9 8 9 8 7 5 3 2 2 1 0 -1 -2 -3 -3 -3 -3 -4 -4 -3 -4 -5 -4 -4 -5 -5 -3 -3 -4
9 9 9 9 9 9 9 9 9 9 8 8 8 8 7 7 6 5 3 2 0 0 0 -1 -1 -2 -3 -3 -3 -3 -4 -6 -5 -5 -5 -6 -6 -6 -6 -5 -6 -6 -6
9 9 10 10 9 9 9 9 8 8 8 8 7 6 5 4 4 2 1 1 -0 -1 -2 -2 -3 -4 -3 -3 -3 -4 -5 -5 -6 -7 -6 -7 -7 -7 -7 -7 -7 -7 -7

GFSMA_850_temp_063.txt.gz
Temp
11 11 11 11 10 10 11 10 11 11 11 11 11 11 11 12 11 10 8 7 7 7 8 7 8 9 9 9 8 9 9 8 8 8 8 8 8 8 8 8 8 8 7
11 11 11 11 11 11 11 11 12 11 11 11 11 11 11 11 11 10 8 7 8 8 8 8 7 7 8 8 8 8 8 7 8 7 7 8 8 7 7 7 7 7 7
11 11 11 11 12 12 12 12 11 11 12 11 11 11 11 11 11 11 9 8 8 8 8 8 8 8 7 7 7 7 7 7 7 7 7 7 7 7 7 6 6 6 6
10 11 12 12 12 12 12 12 12 12 12 12 11 11 11 11 10 10 11 10 8 8 9 8 8 8 7 7 8 8 8 8 7 7 7 7 7 6 6 6 6 6 6
10 10 11 11 11 11 12 12 12 12 12 12 12 11 11 11 10 10 10 10 10 9 9 9 9 8 8 8 8 8 8 8 7 7 7 7 6 6 6 5 5 5 5
9 10 11 10 10 11 11 11 12 12 12 12 13 12 11 11 10 10 10 9 9 9 9 9 9 9 8 8 7 8 7 6 6 6 6 6 6 5 5 5 5 5 5
9 10 11 11 11 11 11 11 11 11 11 11 12 12 11 10 10 10 10 10 9 10 10 9 8 8 9 9 8 8 6 6 6 5 5 5 5 5 5 5 5 4 5
10 11 10 11 10 11 11 11 11 10 11 11 12 11 11 11 10 10 10 10 9 9 9 9 8 8 9 9 9 9 8 6 6 7 6 5 5 4 4 4 4 4 4
10 11 10 10 11 10 11 10 10 11 11 10 11 12 12 13 12 11 10 10 10 9 9 9 8 10 9 8 8 8 8 8 7 6 6 6 6 5 4 4 4 3 3
10 10 12 11 10 10 10 10 10 11 11 10 10 11 11 11 13 11 11 10 9 9 10 9 9 8 9 9 8 8 7 8 7 7 7 6 5 5 5 4 4 3 3
9 9 10 10 10 10 10 10 10 10 10 11 10 10 11 11 12 11 11 10 9 10 10 10 9 8 8 9 8 8 7 8 7 7 7 7 6 5 5 4 4 4 3
9 9 9 10 10 11 10 11 10 11 11 11 10 10 10 10 10 10 10 10 9 10 10 10 10 9 7 8 8 7 8 8 8 8 7 6 6 6 5 5 4 4 3
9 9 9 10 11 10 10 9 11 11 11 11 11 11 10 10 10 10 10 9 9 9 9 10 10 10 9 8 8 7 8 8 8 7 7 6 6 5 5 4 4 4 3
10 10 10 10 10 10 10 9 10 10 11 11 11 11 10 10 10 10 9 8 9 8 8 9 9 9 8 8 8 8 8 8 7 7 7 6 6 5 4 4 4 4 3
9 9 10 10 10 10 11 10 10 11 11 11 11 10 10 10 9 9 10 9 8 8 8 8 10 10 9 7 7 8 8 8 7 7 7 6 5 4 4 4 4 3 3
9 9 9 11 11 11 11 10 10 11 11 11 10 10 10 10 10 9 9 9 8 9 8 8 9 10 9 7 7 7 8 7 7 7 6 5 4 4 3 3 3 3 3
9 9 10 11 11 11 11 11 10 10 10 10 10 9 9 9 9 9 9 8 8 9 7 7 7 8 7 6 7 7 6 6 6 6 5 5 4 3 3 2 2 3 3
9 9 9 10 11 11 11 11 11 10 9 9 10 9 9 9 9 9 9 9 9 8 9 7 7 7 8 6 7 7 6 5 5 3 4 4 4 3 2 2 3 3 2
10 9 10 10 10 10 10 9 9 10 9 10 10 10 10 10 9 9 10 9 9 8 8 7 6 6 6 5 5 5 5 3 3 3 3 2 2 2 2 2 2 2 2
10 10 10 10 10 10 10 9 9 9 9 10 9 9 9 9 9 9 10 10 10 9 8 7 7 7 6 5 4 4 3 3 3 1 0 -0 0 2 2 2 2 2 2
10 10 10 10 10 10 10 9 9 9 9 9 9 9 9 9 9 9 9 9 9 9 7 7 7 6 5 5 5 4 3 2 -0 -0 -0 -1 -1 -0 1 2 2 2 2
10 10 10 10 10 10 11 11 10 9 9 9 9 9 9 9 10 10 9 8 8 8 7 7 7 6 6 4 4 2 1 0 -2 -1 -1 -1 -2 -2 0 -0 -1 -0 -0
10 10 10 9 10 10 11 10 9 9 8 9 9 9 8 8 9 9 8 8 8 7 6 5 5 4 3 2 1 0 -1 -2 -2 -2 -2 -3 -2 -1 -1 -2 -3 -3 -2
10 10 9 9 9 9 9 9 9 9 8 8 8 8 8 8 9 9 8 8 7 6 4 3 3 1 1 1 -0 -1 -2 -5 -3 -3 -3 -4 -3 -3 -3 -3 -3 -3 -3
10 10 9 9 9 9 9 9 9 8 8 8 8 8 8 8 8 8 7 6 5 3 1 0 0 0 -0 -0 -2 -3 -5 -4 -4 -5 -4 -5 -4 -4 -5 -5 -4 -5 -5
10 10 10 9 9 9 9 9 9 9 8 8 8 8 7 7 6 5 4 3 2 0 -0 -1 -1 -2 -3 -3 -5 -5 -4 -4 -5 -6 -4 -5 -6 -6 -6 -6 -6 -6 -6

GFSMA_850_temp_069.txt.gz
Temp
12 13 13 13 13 13 13 13 12 12 12 12 12 11 11 12 12 12 12 10 9 10 10 11 11 11 11 11 11 11 11 10 10 10 10 10 10 9 9 9 9 8 8
13 12 13 13 12 13 13 13 13 12 11 12 12 11 12 12 12 12 12 11 9 10 11 11 11 11 10 10 10 10 10 10 10 9 9 9 9 9 8 8 8 8 8
12 12 13 12 12 12 12 12 12 12 11 11 11 11 12 12 11 11 12 11 10 11 11 11 10 10 10 10 10 10 10 9 9 9 9 8 8 8 8 7 8 7 7
12 12 12 12 12 12 11 11 11 11 11 11 11 11 11 11 11 11 11 11 10 10 9 10 10 10 9 9 9 10 9 9 9 9 8 8 7 7 7 7 7 7 7
12 12 12 12 12 12 11 11 11 11 11 11 11 11 11 11 11 11 10 11 11 11 11 10 10 10 9 9 9 9 9 9 9 9 8 8 7 7 7 7 7 7 7
11 12 12 12 12 12 12 11 11 11 11 11 11 11 11 11 10 10 10 10 10 10 10 10 10 10 10 9 9 9 9 10 9 9 8 8 7 7 7 7 7 6 6
10 11 11 11 12 12 12 11 12 12 11 11 11 11 11 11 11 10 10 10 10 10 10 10 9 10 9 9 9 9 9 8 8 9 9 8 7 7 7 7 7 6 6
10 10 11 11 11 11 11 11 12 12 12 12 11 11 11 11 11 11 10 10 10 10 10 9 10 10 10 10 10 10 9 9 8 8 8 7 8 8 7 6 6 7 6
10 10 11 10 10 10 10 10 12 12 12 12 12 12 11 11 11 10 10 10 10 10 9 9 10 10 10 10 10 10 10 9 9 8 8 8 8 7 7 7 7 7 7
9 10 10 11 10 10 10 11 12 12 12 12 11 11 11 11 11 11 11 10 10 10 10 10 10 10 10 10 11 11 10 10 10 9 8 8 8 8 7 7 7 6 5
10 10 10 10 11 11 11 11 11 12 12 12 11 12 11 11 11 11 11 11 10 10 10 10 10 10 10 10 10 10 10 10 10 9 9 8 8 8 8 7 7 6 6
10 9 10 11 11 11 11 12 11 11 11 12 12 11 12 11 11 11 11 11 11 11 11 11 10 10 10 10 10 10 10 10 10 9 8 9 8 8 8 7 7 7 6
9 10 10 10 11 11 11 11 11 11 11 11 10 10 10 11 11 11 11 11 10 11 11 10 11 11 11 10 10 10 10 9 9 9 9 9 8 8 8 7 7 7 6
10 11 11 11 11 11 10 10 11 11 11 11 11 9 9 10 10 11 11 11 11 10 10 10 11 10 11 11 11 11 10 10 10 9 8 9 8 8 8 7 7 7 6
10 10 10 10 10 11 10 10 10 10 10 10 11 9 9 9 9 10 11 11 11 10 10 11 11 11 11 10 10 10 10 10 10 9 8 8 8 7 8 7 7 7 6
10 10 10 10 10 10 10 10 10 10 10 10 11 10 10 10 10 10 10 10 10 10 10 10 10 11 11 10 10 9 10 10 9 10 9 8 7 7 7 7 7 6 6
10 10 10 10 10 10 10 11 10 10 10 10 10 10 10 10 10 11 10 10 10 10 10 10 10 11 11 11 10 10 10 10 9 9 9 8 7 6 6 5 5 4 4
9 10 10 10 10 10 10 11 10 10 10 10 11 10 10 11 10 10 10 10 10 10 10 9 10 10 10 11 10 9 9 9 8 9 8 8 8 6 6 5 4 3 2
9 9 8 9 9 10 10 10 10 10 11 11 11 11 11 10 10 10 10 10 10 10 10 10 10 9 8 8 9 9 9 8 8 8 7 7 7 5 5 5 4 2 1
9 9 9 9 9 9 9 10 10 10 10 10 9 10 10 10 10 10 10 10 10 10 10 9 8 8 8 8 8 8 8 7 7 7 7 7 6 5 3 2 2 2 1
9 9 9 10 9 9 9 8 9 9 9 9 9 9 10 10 10 10 10 10 10 9 9 8 8 8 8 8 8 8 8 7 6 5 5 4 3 3 2 1 -0 0 -0
9 9 9 9 9 10 10 9 8 9 9 8 9 10 9 9 10 10 10 9 9 9 9 8 8 8 8 8 8 8 7 6 4 4 3 2 2 1 1 0 -0 -0 -2
11 11 10 9 9 9 10 9 9 9 9 9 9 9 9 9 10 10 9 9 9 9 9 9 9 8 8 7 7 7 6 5 4 3 2 0 1 0 -0 -1 -1 -3 -4
11 11 11 10 10 10 10 10 10 10 9 9 9 9 10 10 10 9 9 9 9 9 9 9 9 8 8 6 6 5 3 3 1 1 0 -0 -1 -2 -2 -3 -4 -5 -3
12 11 11 11 10 11 10 10 10 10 10 9 9 9 9 9 9 9 9 8 8 9 8 8 7 5 4 4 4 2 1 0 -1 -2 -3 -3 -3 -3 -3 -4 -6 -5 -5
13 11 11 10 10 10 10 10 10 9 9 9 9 9 9 9 9 8 8 8 8 7 4 3 2 1 1 1 -1 -1 -2 -2 -2 -4 -4 -4 -5 -6 -6 -6 -6 -6 -6

GFSMA_850_temp_072.txt.gz
Temp
13 12 12 13 13 14 13 13 12 12 11 11 11 12 11 11 12 11 12 12 12 12 12 12 12 11 11 11 11 11 11 11 10 11 10 10 10 10 9 9 9 9 8
13 12 12 13 13 14 13 13 12 12 12 11 11 12 11 11 12 11 12 12 11 12 11 11 11 11 11 11 11 11 10 10 10 10 10 10 9 9 9 9 8 8 8
13 13 13 13 13 13 13 12 12 12 12 11 11 11 11 11 11 11 12 12 11 11 12 11 11 11 11 11 11 10 10 10 9 10 10 9 9 9 9 9 8 8 8
12 12 13 13 13 13 13 12 12 11 12 11 11 11 12 11 11 11 11 11 12 12 12 11 11 11 11 11 10 10 10 9 9 9 9 9 9 9 8 8 8 8 7
12 13 13 13 13 13 12 12 11 11 12 11 11 11 11 11 11 11 11 11 12 12 12 11 11 10 10 10 10 10 10 10 10 9 9 9 9 8 8 8 8 7 7
12 12 13 13 12 12 12 12 11 11 11 11 11 11 11 11 11 11 11 11 10 11 11 11 11 10 10 10 10 10 10 10 10 10 10 9 9 9 8 8 8 8 8
11 12 12 12 12 12 11 11 11 11 11 11 11 10 10 10 10 10 10 10 10 10 10 10 10 10 10 10 10 10 10 9 8 10 10 9 9 9 9 8 8 7 7
11 11 11 12 12 12 11 11 11 11 11 11 11 11 10 9 10 10 10 10 10 10 10 10 10 10 11 10 10 10 10 9 8 9 9 9 9 9 8 8 8 7 7
10 10 10 10 11 12 11 11 11 11 11 11 11 11 10 10 10 10 10 10 10 10 10 10 10 10 10 10 10 10 10 10 9 8 8 8 8 8 8 8 8 7 7
10 9 10 10 11 11 11 11 11 11 11 11 11 11 11 11 10 10 10 10 10 10 10 10 10 10 10 10 10 11 10 10 10 9 9 8 8 8 8 8 8 8 7
9 9 9 10 10 10 11 11 11 11 11 12 11 11 11 11 11 11 11 11 10 10 10 10 10 10 10 10 11 11 11 10 10 9 9 9 8 8 8 8 7 7 7
9 9 10 10 9 10 10 10 10 10 10 12 12 12 11 11 11 11 11 11 11 11 11 11 10 10 10 10 11 11 11 11 10 10 9 9 8 8 8 8 7 7 7
9 9 10 10 9 9 9 9 10 10 10 12 12 12 11 11 11 11 11 11 11 11 11 12 11 11 11 11 11 11 11 11 11 10 10 9 9 8 8 8 8 7 7
10 10 9 9 9 9 9 10 10 10 11 11 11 12 11 11 11 10 10 10 10 10 11 11 12 11 11 11 11 11 11 10 10 10 10 10 10 9 9 8 8 7 7
10 10 10 10 9 10 10 11 11 11 11 11 11 11 11 11 12 11 9 9 9 8 9 10 11 11 11 11 11 11 11 11 11 11 10 10 10 10 9 9 8 7 6
10 10 10 10 10 10 11 11 11 11 10 10 10 10 10 10 11 10 9 9 9 9 8 10 11 11 11 11 11 11 11 11 11 11 10 10 9 9 9 8 8 7 7
10 10 10 10 10 10 11 11 10 10 10 10 10 10 11 11 11 10 10 10 10 9 9 10 10 11 11 11 11 11 11 10 10 10 10 10 9 8 8 7 7 7 6
10 10 10 10 10 10 10 10 10 10 10 10 10 10 10 10 10 10 10 10 10 10 10 9 11 10 11 11 11 10 10 10 9 9 10 9 9 8 8 7 7 7 6
9 9 10 9 10 10 10 10 10 10 10 10 10 10 10 10 10 10 10 10 10 10 10 10 10 10 10 10 10 9 9 9 10 9 9 9 9 8 7 7 6 6 5
8 8 8 9 9 9 9 9 10 10 10 10 10 10 10 10 10 10 10 10 10 10 10 9 8 8 8 8 8 8 8 10 9 9 9 8 8 8 7 6 5 4 4
8 8 8 8 8 8 8 8 8 9 9 9 9 9 9 10 10 10 10 10 10 9 9 8 7 8 8 8 8 8 8 9 9 8 8 8 7 7 6 4 4 3 3
10 10 8 8 8 8 9 8 8 9 8 8 8 9 9 9 9 10 10 9 9 8 8 8 8 8 8 8 8 8 8 8 8 7 7 6 5 5 4 3 3 2 0
11 11 10 10 9 9 9 9 9 9 8 8 8 8 8 8 8 8 9 8 8 8 8 8 8 8 8 8 8 8 8 8 8 7 5 4 3 2 1 1 0 -0 -1
10 11 11 11 10 11 11 10 9 9 9 9 9 9 9 9 9 9 9 9 9 9 9 8 8 8 8 7 8 8 7 6 6 4 3 1 1 1 -0 -1 -1 -2 -3
9 10 10 10 10 10 10 10 10 10 10 10 9 9 9 9 9 9 9 9 9 9 9 9 8 8 8 8 7 6 4 4 3 1 0 -1 -2 -2 -3 -3 -3 -3 -4
9 10 10 9 10 10 10 10 10 10 10 10 9 9 9 9 9 9 9 9 8 8 7 6 5 4 2 1 1 1 1 0 -0 -3 -3 -2 -3 -3 -3 -3 -4 -5 -6

GFSMA_850_temp_075.txt.gz
Temp
13 13 11 11 12 11 11 11 11 11 11 11 11 12 11 11 11 12 12 8 9 9 10 8 11 11 11 11 11 11 11 11 11 11 11 11 10 10 10 10 10 10 10
12 11 12 11 12 11 11 11 10 11 11 11 11 11 11 11 11 11 11 10 10 10 12 10 11 11 11 11 11 11 11 11 11 11 11 10 10 10 9 9 9 9 9
11 12 12 12 12 12 12 11 11 11 11 11 11 11 11 11 11 11 11 11 10 10 11 12 11 11 11 11 11 11 11 11 11 11 10 10 10 9 10 9 9 9 9
11 11 12 12 12 12 12 12 11 10 10 11 11 11 11 11 11 11 11 11 11 11 11 11 11 11 11 11 11 11 10 10 11 11 10 10 10 10 9 9 9 9 8
10 11 13 12 12 12 12 12 11 11 11 11 11 11 11 11 11 11 11 10 10 10 11 11 11 11 11 11 11 10 10 10 10 10 10 10 9 9 9 9 9 8 8
11 11 13 12 12 12 12 11 11 11 11 11 11 11 11 11 11 11 11 10 10 10 11 11 10 10 11 10 10 10 10 10 10 10 10 10 9 9 9 9 8 8 8
11 12 12 12 12 12 12 11 11 11 11 11 11 11 10 10 10 10 10 10 10 10 10 10 10 10 11 10 10 10 10 10 10 10 9 10 9 9 9 8 8 8 8
11 10 11 12 12 12 12 11 11 11 11 11 10 10 9 8 9 10 10 10 10 10 10 10 10 10 10 10 10 10 10 9 8 8 7 8 9 9 8 8 8 8 8
10 10 11 12 11 12 12 12 11 11 11 11 10 11 9 9 9 9 10 10 10 10 10 10 10 10 10 10 10 10 10 10 9 8 8 8 8 9 8 8 8 8 7
10 10 10 11 11 12 12 12 11 11 12 11 10 10 11 11 10 9 10 10 10 10 10 10 10 10 10 10 10 10 10 10 10 9 9 9 8 8 8 8 8 8 8
10 10 10 10 10 10 11 11 11 11 11 11 11 11 11 11 11 11 10 10 10 11 10 10 10 10 10 10 11 11 11 11 10 10 10 9 9 9 8 8 8 8 8
10 10 10 10 9 10 9 10 10 11 10 11 11 11 11 11 11 11 11 11 11 12 12 11 11 10 11 11 11 11 11 11 11 10 10 10 10 9 9 8 8 8 8
10 10 10 9 9 9 9 9 10 10 10 10 10 11 11 11 11 11 11 11 11 11 11 11 11 11 11 11 11 12 11 11 11 11 11 11 10 10 10 10 9 8 8
9 10 9 9 9 9 9 9 9 9 9 10 9 9 10 11 11 11 11 11 10 10 10 10 11 11 11 11 11 12 12 11 11 11 11 11 11 10 10 10 10 9 8
9 9 9 9 9 9 9 9 9 9 10 9 9 9 9 9 11 11 11 11 11 10 9 10 10 11 10 10 11 11 11 11 11 11 11 11 11 10 10 10 10 10 9
9 9 9 9 9 9 9 9 9 9 9 9 9 9 9 10 11 11 11 11 10 10 9 9 10 11 10 10 11 11 11 11 11 11 11 10 10 10 10 9 9 9 8
10 10 9 9 9 9 9 9 9 9 9 9 10 10 10 11 11 11 11 10 10 10 9 10 10 10 10 10 11 11 11 11 11 11 11 11 10 10 9 9 9 9 8
9 9 10 9 9 9 9 9 9 9 9 9 10 10 11 11 10 11 11 10 10 10 10 10 10 10 10 10 11 10 10 10 10 10 11 10 10 10 9 9 8 8 8
9 9 9 9 9 9 9 9 9 9 10 10 10 10 10 10 10 10 10 10 10 10 10 10 9 10 10 10 10 10 10 10 10 10 10 10 10 10 10 9 8 8 8
8 9 9 9 9 9 9 9 9 9 10 10 10 10 10 10 10 10 10 10 10 9 9 8 8 9 9 9 8 8 8 8 8 9 9 9 9 9 9 9 9 8 7
9 9 8 8 9 9 9 8 9 9 9 9 9 9 10 9 10 10 9 9 9 8 8 7 7 7 7 7 7 7 7 8 8 7 7 8 8 8 8 8 8 7 7
9 9 8 8 8 8 8 8 8 8 8 8 8 8 8 8 9 9 9 8 8 7 7 7 7 7 7 7 7 7 8 8 7 7 7 8 7 8 7 7 8 6 5
9 9 9 9 9 9 8 8 8 8 8 8 8 8 8 8 8 9 9 8 8 8 8 8 7 7 7 8 8 8 7 7 8 7 7 7 7 7 6 5 5 4 2
9 8 9 9 9 9 9 8 8 8 8 8 8 8 8 9 9 9 9 9 9 9 8 8 8 8 8 8 7 8 8 7 7 7 6 5 4 3 2 1 0 -0 -1
8 9 8 8 8 9 9 9 9 9 9 9 9 8 8 8 8 8 8 8 8 8 8 8 8 8 7 7 7 6 5 5 4 3 2 1 -1 -1 -3 -3 -3 -3 -3
6 6 7 8 8 8 8 9 9 9 9 8 8 8 8 8 8 8 8 8 8 7 7 5 4 3 -1 0 1 1 1 0 0 -1 -3 -3 -3 -3 -4 -4 -4 -4 -5